Wind_Speed
34 34 35 36 36 37 38 39 41 41 41 43 44 45 46 48 50 51 53 55 56 57 58 59 61 62 63 64 63 63 62 61 61 60 59 58 57 56
35 35 35 36 37 38 39 40 41 42 42 43 45 46 47 49 51 53 55 56 57 58 59 61 62 63 64 63 62 62 61 60 60 59 58 57 57 56
35 36 36 37 37 38 40 41 42 43 43 44 45 47 48 50 52 54 55 57 59 60 61 62 63 63 62 62 62 61 61 60 60 58 58 58 58 57
36 36 36 37 38 39 40 41 42 43 44 44 46 48 49 51 53 55 57 58 60 61 62 63 63 62 61 61 61 61 60 59 58 58 58 58 57 55
36 36 37 37 38 40 41 42 43 44 44 45 46 48 50 52 54 56 58 60 61 62 63 63 62 61 61 61 61 60 59 58 57 57 57 56 53 51
36 37 37 38 39 40 41 42 43 43 45 46 47 49 51 54 55 57 59 60 61 62 61 61 60 60 60 60 59 58 57 56 56 56 55 52 49 46
36 37 37 38 39 40 40 41 42 43 45 46 47 50 52 55 56 58 59 59 60 60 59 59 59 59 58 58 58 56 55 55 55 53 51 48 46 43
36 36 37 38 39 39 40 41 42 44 45 47 48 51 53 55 56 57 58 59 59 58 57 57 57 57 57 57 56 55 54 54 53 51 48 45 43 41
36 36 37 37 38 39 40 41 42 44 45 47 50 52 53 54 56 57 57 58 57 56 55 55 56 56 56 55 54 53 53 51 50 47 44 42 40 38
35 36 36 36 38 39 39 41 42 44 46 48 50 52 53 54 55 56 56 56 55 54 54 54 55 55 54 54 53 52 50 48 46 43 40 39 37 36
35 35 35 36 37 38 39 41 42 44 46 48 50 52 53 55 55 55 54 54 53 53 53 54 54 54 53 52 52 50 47 45 42 40 38 36 34 33
34 34 35 36 37 38 39 40 41 43 46 49 51 52 53 54 53 53 53 52 52 52 53 53 53 53 52 51 50 47 45 42 40 37 35 34 32 32
33 34 34 35 36 37 38 39 41 44 47 49 50 51 52 52 52 52 52 52 52 52 52 52 52 52 51 49 47 45 43 40 38 36 34 33 31 31
33 33 34 34 35 37 38 39 42 44 47 49 50 50 51 51 51 51 52 52 52 52 52 52 52 51 49 47 44 42 40 37 35 34 32 32 31 30
32 33 33 34 35 36 38 40 42 45 47 48 48 48 49 50 51 51 52 52 51 51 51 52 52 50 47 44 41 38 36 35 34 32 31 31 29 28
32 32 33 34 35 36 38 40 42 45 46 47 47 48 49 50 50 51 51 51 51 51 52 51 50 48 45 42 39 36 34 32 32 31 30 29 27 26
32 33 33 33 34 35 37 40 42 44 46 46 46 48 49 50 50 50 50 50 50 51 51 51 49 45 42 39 36 35 33 32 31 29 28 27 26 25
31 31 31 32 33 35 38 40 42 44 45 45 46 47 49 50 50 50 50 49 49 50 50 48 46 43 40 37 34 33 32 31 30 29 28 26 25 24
29 29 30 32 34 36 38 40 42 44 45 45 46 48 49 50 50 49 49 49 50 49 47 44 42 39 36 34 33 31 30 30 29 28 27 25 24 22
28 29 30 32 34 35 38 40 42 43 44 45 46 48 49 49 49 48 48 49 49 47 44 42 39 36 34 32 31 30 29 28 27 27 26 25 23 20
28 29 30 32 34 36 38 40 41 43 44 45 46 48 49 49 48 47 47 48 46 44 42 40 37 35 32 30 29 29 27 26 25 25 25 23 21 19
28 29 30 32 34 36 38 40 41 43 44 45 46 47 48 48 46 46 46 45 44 42 40 38 35 33 30 29 27 27 26 25 25 24 22 20 18 17
28 29 31 32 34 36 38 39 41 43 44 45 46 47 47 46 45 45 44 43 41 40 38 36 33 31 29 27 26 25 25 24 23 23 21 18 17 16
Wind_Direction
285 288 291 293 296 298 300 302 303 304 306 306 307 309 309 310 311 311 312 312 313 313 312 312 312 312 312 312 312 311 309 309 308 307 306 304 302 300
284 287 290 292 295 298 300 302 303 304 306 306 307 308 309 310 311 312 312 313 313 313 313 313 313 312 313 313 312 311 311 310 309 308 306 305 303 301
284 286 289 292 295 298 300 301 302 304 305 306 307 308 310 311 312 312 313 313 313 313 313 314 313 313 313 313 313 312 312 311 310 309 308 306 305 302
283 286 289 292 295 297 299 301 302 304 305 306 308 309 310 311 312 312 313 313 314 314 314 314 314 314 314 314 314 313 313 312 312 311 310 308 306 304
283 286 289 291 294 296 298 300 302 304 305 307 308 310 311 312 313 313 313 314 315 315 315 315 315 315 315 315 315 315 314 314 313 313 312 310 309 307
282 285 288 290 293 295 298 300 302 303 305 307 309 310 312 313 313 314 314 314 315 315 316 316 316 316 316 316 316 316 315 315 315 315 314 313 312 310
281 285 287 290 293 295 297 300 301 304 306 308 309 311 313 314 314 315 315 316 317 317 317 317 317 317 317 318 318 317 317 317 317 316 316 316 315 313
282 284 287 290 293 295 298 300 302 305 307 308 311 313 314 314 315 316 317 318 317 317 317 318 318 318 319 319 319 319 319 319 319 318 317 317 317 316
281 284 286 288 292 296 298 300 303 305 307 310 311 313 314 316 317 318 319 319 319 319 319 320 320 320 320 320 320 320 321 321 321 320 320 320 319 318
280 283 286 289 293 296 298 301 303 305 308 311 313 314 316 317 318 319 320 321 321 321 322 322 322 322 321 321 321 322 322 322 322 323 322 322 322 321
280 283 286 290 293 295 298 301 304 307 310 312 313 315 317 318 319 320 321 321 322 322 323 323 323 323 322 322 322 323 323 322 323 323 324 325 325 324
280 283 287 290 293 296 299 302 305 308 311 313 315 316 317 319 320 321 321 321 322 323 324 324 324 324 323 323 323 323 323 323 323 324 325 326 327 327
280 284 288 290 293 296 299 303 306 309 312 314 316 317 319 320 321 321 322 322 322 324 325 325 325 325 325 324 324 324 324 324 323 324 325 326 327 328
281 285 288 290 294 297 301 304 308 311 314 316 317 318 319 321 321 322 322 322 323 324 325 326 326 326 325 325 325 325 325 325 325 325 325 326 326 327
281 285 287 291 296 299 302 306 310 313 315 317 317 318 320 321 321 321 322 323 323 324 325 326 327 326 326 326 326 326 326 327 327 327 326 326 326 327
280 284 288 292 296 300 303 307 311 314 316 317 318 319 320 321 321 322 322 323 324 325 326 327 327 327 326 327 327 327 328 328 329 329 329 329 329 329
280 284 288 293 297 300 304 308 311 314 316 317 318 319 321 321 322 322 323 323 324 325 326 327 327 327 327 327 328 329 329 330 330 330 331 331 331 330
280 285 289 293 297 301 305 309 312 315 317 318 319 320 321 322 322 322 323 324 325 325 326 326 327 327 328 329 330 330 330 330 331 332 332 332 332 332
281 286 290 295 299 303 306 310 313 316 317 318 319 320 322 322 322 323 324 324 325 326 326 326 327 327 328 328 330 331 331 331 333 334 335 334 334 333
283 287 292 297 300 304 308 311 314 317 318 319 320 321 322 322 323 323 324 324 325 326 327 327 328 328 327 328 329 331 332 333 334 336 336 336 336 336
284 289 293 298 302 305 309 312 315 317 318 319 321 322 322 323 323 323 324 325 326 327 327 328 328 328 327 328 330 331 333 334 335 337 339 339 340 340
285 290 294 299 303 306 310 313 315 317 319 320 321 322 323 323 323 323 325 326 327 328 328 328 328 328 328 329 330 332 333 335 337 339 342 343 344 345
286 291 295 300 304 308 311 314 316 318 319 320 322 323 323 323 323 323 325 326 328 328 328 328 329 329 329 330 331 333 335 337 339 342 345 348 349 351
Height
5750 5748 5746 5743 5740 5736 5733 5729 5725 5721 5716 5710 5705 5698 5692 5686 5679 5672 5664 5656 5648 5640 5631 5623 5614 5605 5596 5586 5577 5568 5559 5551 5542 5534 5527 5519 5511 5504
5742 5740 5738 5735 5732 5728 5725 5721 5716 5712 5708 5702 5696 5690 5683 5676 5669 5661 5653 5645 5637 5628 5619 5610 5601 5591 5582 5572 5563 5554 5545 5536 5527 5519 5511 5503 5495 5488
5734 5732 5730 5727 5724 5720 5717 5712 5708 5703 5699 5693 5687 5681 5674 5667 5659 5651 5643 5634 5625 5616 5607 5597 5588 5578 5568 5559 5549 5540 5531 5522 5513 5505 5496 5488 5479 5472
5726 5724 5722 5719 5716 5712 5708 5704 5699 5695 5690 5685 5678 5671 5664 5657 5649 5641 5632 5623 5614 5604 5594 5584 5574 5565 5555 5545 5536 5526 5517 5508 5499 5490 5481 5473 5464 5456
5718 5716 5714 5711 5708 5704 5700 5695 5691 5686 5681 5675 5669 5662 5655 5647 5639 5630 5620 5611 5601 5591 5581 5571 5561 5552 5542 5532 5523 5513 5504 5495 5485 5476 5466 5457 5449 5442
5710 5708 5706 5703 5699 5695 5691 5687 5682 5677 5672 5666 5660 5652 5645 5637 5628 5619 5610 5599 5590 5579 5568 5558 5549 5539 5529 5520 5511 5501 5491 5482 5472 5463 5453 5444 5437 5429
5702 5700 5697 5694 5690 5687 5683 5678 5673 5668 5663 5657 5650 5643 5635 5626 5618 5608 5599 5589 5578 5567 5557 5546 5537 5527 5517 5508 5498 5489 5480 5470 5461 5452 5442 5434 5426 5419
5693 5691 5688 5685 5682 5678 5674 5669 5665 5660 5654 5648 5641 5633 5625 5616 5607 5597 5587 5578 5569 5559 5548 5537 5526 5516 5506 5497 5487 5478 5469 5460 5450 5441 5432 5424 5417 5409
5684 5682 5680 5677 5673 5670 5665 5661 5656 5650 5645 5639 5631 5623 5615 5607 5598 5588 5577 5566 5556 5546 5536 5527 5516 5506 5496 5486 5477 5468 5459 5450 5440 5432 5423 5416 5408 5401
5675 5673 5671 5668 5664 5661 5657 5652 5647 5641 5636 5629 5622 5613 5604 5595 5586 5577 5566 5556 5545 5535 5526 5517 5506 5497 5486 5476 5466 5458 5449 5441 5432 5424 5416 5409 5401 5394
5667 5665 5662 5659 5656 5652 5648 5644 5639 5633 5626 5619 5611 5603 5594 5585 5576 5567 5557 5547 5538 5527 5517 5507 5498 5488 5478 5467 5457 5449 5440 5432 5425 5417 5409 5402 5395 5389
5658 5656 5654 5651 5647 5643 5640 5635 5630 5624 5617 5610 5602 5593 5584 5575 5566 5557 5548 5539 5529 5520 5509 5499 5489 5479 5471 5460 5450 5441 5432 5425 5417 5410 5403 5397 5390 5384
5649 5648 5645 5642 5639 5635 5631 5627 5621 5615 5608 5601 5593 5584 5575 5566 5557 5548 5539 5530 5520 5510 5501 5491 5481 5471 5461 5452 5443 5433 5425 5418 5411 5404 5397 5391 5385 5379
5641 5639 5637 5633 5630 5627 5623 5618 5612 5606 5599 5591 5583 5575 5566 5557 5548 5539 5530 5521 5512 5502 5492 5483 5473 5463 5454 5444 5436 5427 5419 5412 5405 5398 5392 5386 5380 5374
5632 5630 5628 5625 5622 5618 5614 5609 5604 5597 5590 5582 5574 5566 5558 5549 5540 5531 5521 5512 5503 5494 5485 5475 5465 5455 5446 5437 5429 5422 5414 5407 5400 5394 5387 5381 5376 5370
5624 5622 5620 5617 5614 5610 5606 5601 5595 5588 5581 5573 5565 5557 5549 5541 5532 5523 5513 5504 5495 5485 5476 5467 5457 5448 5439 5430 5423 5416 5409 5403 5396 5389 5383 5377 5371 5366
5616 5614 5612 5609 5606 5602 5597 5592 5586 5579 5572 5565 5557 5549 5541 5532 5523 5514 5506 5496 5487 5478 5468 5459 5449 5441 5433 5425 5418 5411 5404 5397 5391 5385 5379 5373 5368 5363
5608 5606 5604 5601 5598 5594 5589 5584 5578 5571 5564 5556 5549 5541 5533 5524 5515 5506 5498 5489 5480 5471 5462 5452 5443 5434 5427 5420 5414 5407 5400 5394 5387 5381 5375 5370 5365 5360
5600 5598 5596 5593 5589 5585 5580 5575 5569 5562 5555 5548 5540 5533 5524 5516 5507 5498 5489 5481 5472 5463 5454 5446 5438 5430 5422 5415 5409 5403 5397 5390 5384 5378 5372 5367 5362 5357
5592 5590 5588 5585 5581 5577 5572 5567 5561 5554 5547 5540 5532 5524 5516 5507 5499 5490 5482 5473 5464 5455 5447 5439 5432 5425 5418 5412 5406 5400 5394 5388 5382 5376 5370 5364 5359 5355
5584 5582 5580 5577 5573 5569 5564 5558 5552 5546 5538 5531 5524 5516 5507 5499 5491 5482 5474 5466 5457 5449 5441 5434 5427 5420 5414 5408 5402 5396 5391 5385 5380 5374 5368 5362 5357 5353
5576 5574 5572 5569 5565 5560 5555 5550 5544 5537 5530 5523 5515 5507 5499 5491 5483 5475 5467 5459 5450 5443 5435 5428 5421 5415 5410 5404 5398 5393 5388 5382 5377 5372 5367 5362 5357 5352
5568 5566 5564 5561 5557 5552 5547 5542 5535 5529 5522 5514 5507 5499 5491 5483 5475 5467 5460 5452 5444 5437 5430 5423 5417 5411 5406 5401 5396 5390 5385 5380 5375 5370 5366 5361 5356 5353